This is the latest recevied weather packets stored in our database for station/object KB0Y. If no packets are shown the sender has not sent any weather packets the latest 10 day(s).
| Time | Temp. | Humidity | Pressure | Rain* | Wind** | Luminosity | Snow |
|---|---|---|---|---|---|---|---|
| 1778265056 | 26.11° C | 75% | 1018.3 hPa | 0 mm | - | 401 W/m² | - |
| 1778264753 | 26.11° C | 74% | 1018.6 hPa | 0 mm | - | 422 W/m² | - |
| 1778264449 | 25.56° C | 74% | 1018.6 hPa | 0 mm | - | 510 W/m² | - |
| 1778264144 | 25.56° C | 73% | 1018.6 hPa | 0 mm | - | 518 W/m² | - |
| 1778263842 | 25.56° C | 72% | 1018.3 hPa | 0 mm | - | 508 W/m² | - |
| 1778263538 | 25° C | 73% | 1018.9 hPa | 0 mm | - | 404 W/m² | - |
| 1778263235 | 25° C | 73% | 1018.9 hPa | 0 mm | - | 364 W/m² | - |
| 1778262931 | 25° C | 72% | 1018.9 hPa | 0 mm | - | 451 W/m² | - |
| 1778262629 | 24.44° C | 73% | 1018.9 hPa | 0 mm | - | 401 W/m² | - |
| 1778262326 | 24.44° C | 75% | 1018.9 hPa | 0 mm | - | 432 W/m² | - |
| 1778262023 | 24.44° C | 75% | 1019.3 hPa | 0 mm | - | 418 W/m² | - |
| 1778261720 | 24.44° C | 74% | 1019.3 hPa | 0 mm | - | 382 W/m² | - |
| 1778261416 | 24.44° C | 74% | 1019.6 hPa | 0 mm | - | 341 W/m² | - |
| 1778261113 | 24.44° C | 73% | 1019.6 hPa | 0 mm | - | 362 W/m² | - |
| 1778260810 | 24.44° C | 73% | 1019.6 hPa | 0 mm | - | 345 W/m² | - |
| 1778260507 | 24.44° C | 76% | 1019.6 hPa | 0 mm | - | 328 W/m² | - |
| 1778260203 | 24.44° C | 74% | 1019.6 hPa | 0 mm | - | 424 W/m² | - |
| 1778259900 | 23.89° C | 76% | 1019.3 hPa | 0 mm | - | 505 W/m² | - |
| 1778259597 | 23.89° C | 76% | 1019.3 hPa | 0 mm | - | 461 W/m² | - |
| 1778259295 | 23.89° C | 75% | 1019.6 hPa | 0 mm | - | 421 W/m² | - |
| 1778258991 | 23.89° C | 75% | 1020 hPa | 0 mm | - | 519 W/m² | - |
| 1778258384 | 23.89° C | 75% | 1020 hPa | 0 mm | - | 621 W/m² | - |
| 1778258083 | 23.89° C | 76% | 1020 hPa | 0 mm | - | 416 W/m² | - |
| 1778257778 | 23.89° C | 75% | 1020.3 hPa | 0 mm | - | 304 W/m² | - |
| 1778257476 | 23.89° C | 76% | 1020 hPa | 0 mm | - | 330 W/m² | - |
* Rain latest hour (hover to see other rain measurements)
** Current wind speed in m/s (hover to see current wind gust speed)